ARKTIKA-M 2

Last updated on Fri Jun 19 2026 17:09:13 GMT+0000 (Coordinated Universal Time)

1 58584U 23198A 26168.75920439 .00000145 00000+0 00000+0 0 9993 2 58584 63.2243 154.2920 6902344 267.4286 18.7609 2.00612717 18330
UTC large
Height (km)
Speed (km/s)
/
Latitude / Longitude
Inclination (degrees)
Orbital Period (minutes)
Azimuth
Elevation
Range (km)
Doppler Factor

Next 0 passes for location: London (51.5072 / 0.1276)

No passes found over London.
ARKTIKA-M 2